Regional Weather Roundup
Issued by NWS Mt. Holly, NJ

Home | Current Version | Previous Version | Text Only | Print | Product List | Glossary On
Versions: 1 2 3 4 5 6 7 8 9 10 11 12 13 14 15 16 17 18 19 20 21 22 23 24 25 26 27 28 29 30 31 32 33 34 35 36 37 38 39 40 41 42 43 44 45 46 47 48 49 50
332
ASUS41 KPHI 062212
RWRPHI

REGIONAL WEATHER ROUNDUP
NATIONAL WEATHER SERVICE MOUNT HOLLY NJ
500 PM EST TUE DEC 06 2016

NOTE:  "FAIR" INDICATES FEW OR NO CLOUDS BELOW 12,000 FEET WITH NO
SIGNIFICANT WEATHER AND/OR OBSTRUCTIONS TO VISIBILITY.

 * = STATION DOES NOT REPORT PRECIPITATION (E.G. RAIN, SNOW, ETC.)
        OR FOG.

NJZ015>026-062300-
SOUTHERN NEW JERSEY

CITY           SKY/WX    TMP DP  RH WIND       PRES   REMARKS
POMONA         RAIN      47  42  83 E10       29.88R
WILDWOOD*      HVY RAIN  48  46  93 NE13G21   29.84R FOG
MILLVILLE      RAIN      44  44 100 NE10      29.87F FOG
MOUNT HOLLY    RAIN      42  40  92 N6        29.93R FOG
TRENTON        RAIN      41  36  82 NE7       29.93S

$$
NJZ001>014-062300-
NORTHERN NEW JERSEY

CITY           SKY/WX    TMP DP  RH WIND       PRES   REMARKS
SUSSEX         CLOUDY    41  29  62 CALM      29.96R
ANDOVER*         N/A     39  31  72 CALM      29.96R
MORRISTOWN     LGT RAIN  43  32  65 NE3       29.98R
NEWARK         LGT RAIN  46  33  60 NE7       29.98R
TETERBORO      LGT RAIN  45  30  55 E12       29.97R
CALDWELL       CLOUDY    43  32  65 E3        29.99R
SOMERVILLE     CLOUDY    43  33  68 NE3       29.95R
ALLAIRE*       LGT RAIN  46  39  76 E8        29.95R
TOMS RIVER*    RAIN      44  42  93 NE5       29.93R

$$
PAZ043-044-047-054-055-060>062-066>071-062300-
EASTERN PENNSYLVANIA

CITY           SKY/WX    TMP DP  RH WIND       PRES   REMARKS
PHILADELPHIA   RAIN      42  39  89 NE10      29.91F FOG
NORTH PHILA    RAIN      42  38  85 NE9       29.93  FOG
BLUE BELL*     CLOUDY    36  36 100 NE5       29.90F WCI  32
DOYLESTOWN     RAIN      38  36  92 NE3       29.91F
QUAKERTOWN*    CLOUDY    36  34  93 NE5       29.91F WCI  32
PERKASIE*      MIX PCPN  36  36 100 NE8       29.91F WCI  29
POTTSTOWN      RAIN      36  34  92 NE7       29.92F FOG     WCI  30
LANCASTER      RAIN      38  38 100 E8        29.90F FOG     WCI  32
COATESVILLE    LGT RAIN  37  37 100 CALM      29.90R
READING        RAIN      38  33  82 E7        29.90F WCI  33
ALLENTOWN      RAIN      38  32  79 E8        29.92F WCI  32
MOUNT POCONO   LGT SNOW  30  28  93 SE8       29.89R FOG     WCI  23
HAZLETON       LGT SNOW  34  32  93 E9        29.90F WCI  26
LEHIGHTON      LGT SNOW  36  34  93 NE5       29.93F WCI  32
WILKES BARRE   LGT RAIN  37  31  78 NE5       29.92S WCI  33

$$
DEZALL-MDZ008-012-015-019-020-062300-
DELAWARE AND EASTERN MARYLAND

CITY           SKY/WX    TMP DP  RH WIND       PRES   REMARKS
WILMINGTON     RAIN      43  40  89 E16       29.89F FOG
GEORGETOWN     RAIN      49  47  93 E15       29.79R FOG
EASTON         RAIN      46  45  93 NE13      29.81F FOG
PATUXENT       LGT RAIN  47  47 100 NE15      29.74F FOG
OCEAN CITY     LGT RAIN  50  47  89 E20G31    29.74F FOG
WALLOPS ISLAND LGT RAIN  51  51 100 E22       29.70F
CAMBRIDGE      CLOUDY    45  45 100 NE9       29.74F
SALISBURY      LGT RAIN  49  48  97 E16G30    29.73S FOG

$$
PAZ001-021-NYZ056-072-MDZ011-DCZ001-062300-
OTHER NEARBY LOCATIONS

CITY           SKY/WX    TMP DP  RH WIND       PRES   REMARKS
HARRISBURG     RAIN      38  37  97 E7        29.88F FOG     WCI  33
STATE COLLEGE  RAIN      34  32  93 SE6       29.83F WCI  29
WILLIAMSPORT   RAIN      42  34  73 E10       29.90S
BINGHAMTON     CLOUDY    35  26  69 S10       29.87R WCI  27
NEW YORK CITY  CLOUDY    45  30  55 SE7       29.99R
BALTIMORE      LGT RAIN  45  43  93 N7        29.83F FOG
WASHINGTON DC  LGT RAIN  43  41  93 NE14      29.83F FOG

$$




USA.gov is the U.S. government's official web portal to all federal, state and local government web resources and services.